Regional Weather Roundup
Issued by NWS Midland/Odessa, TX

Skip options and go directly to product.
Home | Oldest Version | Previous Version | Current Version | All | Text Only | Save Text | Print | Product List | Glossary Off

Skip product version selection by date and time.   

440
ASUS44 KMAF 261710
RWRMAF
MIDLAND AREA WEATHER ROUNDUP
NATIONAL WEATHER SERVICE MIDLAND TX
1200 PM CDT SAT JUL 26 2014

...IN SOUTHWEST TEXAS AND SOUTHEAST NEW MEXICO...

CITY           SKY/WX    TMP DP  RH WIND       PRES   REMARKS
ALPINE         MOSUNNY   88  54  31 SW7       30.21S
ANDREWS        FAIR      89  59  35 S7        30.07S
ARTESIA        SUNNY     91  55  29 SE9       30.05S
BIG SPRING     SUNNY     94  61  32 S13       30.07F
CARLSBAD       SUNNY     92  58  31 SE12      30.03S
DRYDEN           N/A     93  66  40 SE9       30.03F
FORT STOCKTON  SUNNY     92  55  28 VRB5      30.05F
GUAD PASS      SUNNY     86  53  32 SW18        N/A
HOBBS          SUNNY     88  50  27 SE6       30.10S
MARFA          SUNNY     82  55  39 S8        30.21F
MIDLAND AIRPK  SUNNY     92  59  33 S7        30.06S
MIDLAND INTL   SUNNY     91  62  37 SE10G17   30.05S
ODESSA         SUNNY     91  59  33 S15       30.06F
PECOS          SUNNY     91  58  33 CALM      30.01F
PRESIDIO       FAIR      93  55  28 S5        30.04S
SEMINOLE       SUNNY     90  53  28 S8        30.09S
SNYDER         SUNNY     90  63  40 S9        30.05F
WINK           SUNNY     92  60  34 SE9       30.02F
$$
...OTHER STATIONS IN TEXAS...

CITY           SKY/WX    TMP DP  RH WIND       PRES   REMARKS
ABILENE        SUNNY     90  68  48 S14       30.04S
AMARILLO       SUNNY     94  57  28 SW14      30.05F
AUSTIN         MOSUNNY   91  71  51 S14G21    30.03F
BROWNSVILLE    MOSUNNY   93  74  53 SE20G29   30.03R HX 103
CORPUS CHRISTI MOSUNNY   95  71  45 S14G24    30.02S HX 102
DALLAS FTW     MOSUNNY   96  68  39 SW13G22   29.99F HX 101
DEL RIO        SUNNY     91  69  48 E12       29.99S
EL PASO        SUNNY     89  51  27 SE8       30.07F
HOUSTON INT    MOSUNNY   91  72  53 SW9       30.06S
LUBBOCK        MOSUNNY   91  56  30 S12       30.07S
SAN ANGELO     SUNNY     92  63  38 S14       30.03F
SAN ANTONIO    MOSUNNY   88  72  58 S13G18    30.06S
WACO           SUNNY     92  71  50 S14       30.02F
WICHITA FALLS  NOT AVBL
$$
...OTHER LOCATIONS IN NEW MEXICO...

CITY           SKY/WX    TMP DP  RH WIND       PRES   REMARKS
ALAMAGORDO     SUNNY     91  45  19 SW6       30.10S
ALBUQUERQUE    MOSUNNY   85  48  27 CALM      30.21S
CANNON AFB     SUNNY     90  55  30 SW10      30.11F
CLOVIS         NOT AVBL
HOLLOMAN AFB   SUNNY     93  47  20 VRB3      30.07F
ROSWELL        SUNNY     91  55  29 SW6       30.04F
RUIDOSO        SUNNY     84  41  21 N7        30.32S
SANTA FE       SUNNY     85  48  27 N14       30.27R
TRUTH OR CONSE SUNNY     91  48  22 VRB5      30.13F
TUCUMCARI      SUNNY     92  52  25 W10       30.06F
$$

USA.gov is the U.S. government's official web portal to all federal, state and local government web resources and services.